[Date Prev][Date Next][Thread Prev][Thread Next] - [Date Index][Thread Index][Author Index]
2 Line ISS Keps 7-12
- Subject: [sarex] 2 Line ISS Keps 7-12
- From: "Dave Larsen PhD" <doc@xxxxxxxxxxx>
- Date: Fri, 12 Jul 2002 02:52:52 -0700
ISS
1 25544U 98067A 02193.08279632 .00000303 00000-0 10360-4 0 6540
2 25544 51.6371 288.0014 0008456 347.7205 71.7413 15.58883812207910
----
Via the sarex mailing list at AMSAT.ORG courtesy of AMSAT-NA.
To unsubscribe, send "unsubscribe sarex" to Majordomo@amsat.org
AMSAT Home